GW5510 Weather Reports


time (UTC)temp
C
wind
direction
speed
KPH
gust
KPH
rain 1hr
cm
rain 24hr
cm
rain mn
cm
humidity
%
barometer
mb
20260508035624 10 258 1.6 1.6 0.00 1.47 1.47 45 1019.2
20260508035121 10 293 1.6 1.6 0.00 1.47 1.47 44 1019.2
20260508034618 11 7 3.2 4.8 0.00 1.47 1.47 42 1019.3
20260508034115 11 347 4.8 6.4 0.00 1.47 1.47 41 1019.0
20260508033612 10 353 3.2 4.8 0.00 1.47 1.47 43 1019.2
20260508033111 10 284 1.6 1.6 0.00 1.47 1.47 42 1018.8
20260508032607 10 229 0.0 0.0 0.00 1.47 1.47 43 1018.8
20260508032104 10 229 0.0 0.0 0.00 1.47 1.47 43 1018.9
20260508031601 10 232 0.0 0.0 0.00 1.47 1.47 42 1018.8
20260508031057 10 237 0.0 0.0 0.00 1.47 1.47 41 1018.7
20260508030554 10 237 0.0 0.0 0.00 1.47 1.47 43 1018.4
20260508030052 10 242 0.0 0.0 0.00 1.47 1.47 41 1018.3
20260508025548 10 243 0.0 0.0 0.00 1.47 1.47 41 1018.3
20260508025045 10 233 0.0 0.0 0.00 1.47 1.47 40 1018.3
20260508024541 10 233 0.0 0.0 0.00 1.47 1.47 40 1018.0
20260508024038 10 234 0.0 0.0 0.00 1.47 1.47 40 1017.9
20260508023534 10 237 0.0 0.0 0.00 1.47 1.47 41 1017.9
20260508023032 10 217 0.0 0.0 0.00 1.47 1.47 39 1017.7
20260508022528 10 214 0.0 0.0 0.00 1.47 1.47 41 1017.9
20260508022025 10 213 1.6 1.6 0.00 1.47 1.47 41 1017.5
20260508021520 10 220 0.0 1.6 0.00 1.47 1.47 40 1017.8
20260508021016 11 220 0.0 0.0 0.00 1.47 1.47 37 1017.7
20260508020514 11 220 0.0 0.0 0.00 1.47 1.47 36 1017.7
20260508020012 11 220 0.0 0.0 0.00 1.47 1.47 36 1017.5
20260508015509 11 221 0.0 0.0 0.00 1.47 1.47 34 1017.7
20260508015006 12 214 0.0 0.0 0.00 1.47 1.47 34 1017.2
20260508014502 12 214 1.6 1.6 0.00 1.47 1.47 34 1017.4
20260508013959 12 217 0.0 0.0 0.00 1.47 1.47 34 1017.0
20260508013454 12 222 0.0 0.0 0.00 1.47 1.47 36 1017.2
20260508012236 13 227 0.0 0.0 0.00 1.47 1.47 34 1017.2
20260508011734 13 227 0.0 0.0 0.00 1.47 1.47 34 1017.2
20260508011231 12 216 0.0 1.6 0.00 1.47 1.47 33 1016.9
20260508010728 12 216 0.0 1.6 0.00 1.47 1.47 33 1016.9
20260508010226 13 243 1.6 1.6 0.00 1.47 1.47 38 1017.0
20260508005723 13 242 0.0 1.6 0.00 1.47 1.47 39 1017.0
20260508005220 13 262 1.6 1.6 0.00 1.47 1.47 32 1016.9
20260508004715 13 11 3.2 4.8 0.00 1.47 1.47 32 1016.9
20260508004212 14 267 0.0 1.6 0.00 1.47 1.47 31 1017.2
20260508003708 14 239 0.0 0.0 0.00 1.47 1.47 31 1016.9
20260508003206 14 223 0.0 0.0 0.00 1.47 1.47 34 1016.9
20260508002702 13 237 0.0 0.0 0.00 1.47 1.47 32 1016.9
20260508001602 15 225 0.0 0.0 0.00 1.47 1.47 30 1017.0
20260508001058 15 225 0.0 0.0 0.00 1.47 1.47 30 1017.0
20260508000554 15 225 0.0 0.0 0.00 1.47 1.47 30 1017.0
20260508000052 15 251 1.6 1.6 0.00 1.47 1.47 28 1016.9
20260507235548 15 230 0.0 0.0 0.00 1.47 1.47 30 1016.9
20260507235046 15 234 0.0 1.6 0.00 1.47 1.47 28 1016.7
20260507234542 15 265 1.6 1.6 0.00 1.47 1.47 27 1016.5
20260507234039 15 220 1.6 1.6 0.00 1.47 1.47 32 1017.0
20260507233535 15 23 3.2 4.8 0.00 1.47 1.47 28 1016.7
20260507233034 15 260 0.0 1.6 0.00 1.47 1.47 28 1016.9
20260507232530 15 256 1.6 4.8 0.00 1.47 1.47 31 1016.9
20260507232028 15 232 0.0 0.0 0.00 1.47 1.47 29 1017.0
20260507231524 15 267 3.2 4.8 0.00 1.47 1.47 27 1017.0
20260507231021 15 14 4.8 4.8 0.00 1.47 1.47 27 1017.0
20260507230518 14 244 1.6 1.6 0.00 1.47 1.47 31 1017.0
20260507230015 14 16 3.2 4.8 0.00 1.47 1.47 28 1017.2
20260507225510 13 255 1.6 1.6 0.00 1.47 1.47 32 1017.0
20260507225007 14 236 1.6 1.6 0.00 1.47 1.47 32 1017.3
20260507224502 15 2 4.8 6.4 0.00 1.47 1.47 29 1017.3
20260507223959 15 9 4.8 6.4 0.00 1.47 1.47 27 1017.5
20260507223454 15 291 0.0 1.6 0.00 1.47 1.47 29 1017.0
20260507222952 16 280 1.6 1.6 0.00 1.47 1.47 26 1017.0
20260507222449 15 236 1.6 1.6 0.00 1.47 1.47 31 1017.0
20260507221945 15 291 3.2 6.4 0.00 1.47 1.47 30 1017.2
20260507221442 15 258 1.6 4.8 0.00 1.47 1.47 32 1017.3
20260507220938 14 318 3.2 6.4 0.00 1.47 1.47 32 1017.5
20260507220436 14 255 0.0 1.6 0.00 1.47 1.47 30 1017.4
20260507215932 15 9 4.8 6.4 0.00 1.47 1.47 28 1017.3
20260507215429 14 252 1.6 1.6 0.00 1.47 1.47 33 1017.5
20260507214926 14 249 1.6 1.6 0.00 1.47 1.47 32 1017.5
20260507214424 14 240 4.8 6.4 0.00 1.47 1.47 30 1017.8
20260507213919 15 211 1.6 4.8 0.00 1.47 1.47 32 1017.8
20260507213416 15 227 1.6 1.6 0.00 1.47 1.47 30 1017.9
20260507212913 15 279 3.2 4.8 0.00 1.47 1.47 31 1017.4
20260507212409 17 234 3.2 4.8 0.00 1.47 1.47 31 1017.7
20260507211906 17 236 1.6 1.6 0.00 1.47 1.47 31 1017.8
20260507211402 16 246 0.0 0.0 0.00 1.47 1.47 33 1017.7
20260507210859 16 237 1.6 4.8 0.00 1.47 1.47 31 1017.9
20260507210356 16 8 3.2 6.4 0.00 1.47 1.47 33 1017.8
20260507205853 16 288 1.6 4.8 0.00 1.47 1.47 30 1017.9
20260507205349 16 232 0.0 0.0 0.00 1.47 1.47 33 1018.0
20260507204846 16 249 1.6 4.8 0.00 1.47 1.47 34 1017.9
20260507204343 15 309 1.6 4.8 0.00 1.47 1.47 34 1018.3
20260507203841 15 234 0.0 0.0 0.00 1.47 1.47 37 1018.3
20260507203339 15 244 0.0 0.0 0.00 1.47 1.47 37 1018.3
20260507202834 15 279 0.0 1.6 0.00 1.47 1.47 32 1018.4
20260507202331 15 254 0.0 1.6 0.00 1.47 1.47 40 1018.7
20260507201827 15 269 1.6 4.8 0.00 1.47 1.47 37 1018.9
20260507201322 14 222 3.2 4.8 0.00 1.47 1.47 38 1018.5
20260507200819 13 227 0.0 0.0 0.00 1.47 1.47 37 1018.9
20260507200315 14 268 1.6 1.6 0.00 1.47 1.47 40 1019.0
20260507195811 13 298 3.2 4.8 0.00 1.47 1.47 39 1018.8
20260507195309 13 246 0.0 1.6 0.00 1.47 1.47 43 1018.9
20260507194806 13 261 1.6 4.8 0.00 1.47 1.47 40 1018.8
20260507194302 13 251 0.0 1.6 0.00 1.47 1.47 44 1018.8
20260507193758 13 280 1.6 1.6 0.00 1.47 1.47 41 1019.0
20260507193255 13 246 1.6 1.6 0.00 1.47 1.47 41 1019.0
20260507192751 13 216 4.8 6.4 0.18 1.47 1.47 37 1019.0
20260507192248 12 232 0.0 1.6 0.18 1.47 1.47 42 1019.0
20260507191744 12 218 1.6 1.6 0.00 1.45 1.45 37 1019.0
20260507191241 11 227 0.0 0.0 0.00 1.45 1.45 45 1019.4
20260507190738 11 250 0.0 0.0 0.13 1.45 1.45 47 1019.5
20260507190237 11 240 0.0 1.6 0.13 1.45 1.45 44 1019.3
20260507185735 11 282 0.0 0.0 0.18 1.42 1.42 44 1019.4
20260507185231 12 344 3.2 6.4 0.30 1.42 1.42 41 1019.4
20260507184729 13 216 3.2 4.8 0.30 1.40 1.40 37 1019.7
20260507184227 11 213 3.2 4.8 0.18 1.37 1.37 43 1019.7
20260507183723 11 237 0.0 1.6 0.13 1.35 1.35 48 1019.7
20260507183220 11 256 0.0 1.6 0.13 1.35 1.35 47 1019.7
20260507182717 10 233 0.0 0.0 0.18 1.32 1.32 42 1019.7
20260507182212 11 225 0.0 0.0 0.18 1.32 1.32 45 1019.8
20260507181709 10 226 1.6 1.6 0.13 1.30 1.30 39 1019.9
20260507181206 10 237 0.0 1.6 0.13 1.30 1.30 44 1019.7
20260507180702 10 229 0.0 0.0 0.18 1.27 1.27 39 1019.5
20260507180159 11 222 0.0 0.0 0.30 1.27 1.27 46 1019.8
20260507175655 11 222 1.6 1.6 0.13 1.24 1.24 37 1019.4
20260507175152 11 220 0.0 0.0 0.18 1.22 1.22 42 1019.7
20260507174650 11 237 1.6 1.6 0.30 1.22 1.22 34 1019.4
20260507174148 11 234 0.0 1.6 0.30 1.19 1.19 34 1019.9
20260507173644 11 223 3.2 4.8 0.48 1.17 1.17 39 1019.9
20260507173141 11 226 0.0 1.6 0.48 1.14 1.14 40 1019.8
20260507172637 10 221 0.0 1.6 0.30 1.09 1.09 41 1019.9
20260507172130 10 301 1.6 1.6 6.35 1.07 1.07 45 1019.8
20260507171629 11 247 1.6 1.6 6.07 1.02 1.02 51 1020.3
20260507171127 11 300 1.6 4.8 0.00 0.00 0.00 40 1020.4
20260507170624 10 302 1.6 4.8 0.00 0.00 0.00 41 1020.3
20260507170121 10 305 3.2 4.8 0.00 0.00 0.00 41 1020.2
20260507165616 11 225 0.0 0.0 0.00 0.00 0.00 45 1020.2
20260507165113 10 296 1.6 4.8 0.00 0.00 0.00 41 1020.5
20260507164609 10 235 1.6 1.6 0.00 0.00 0.00 46 1020.3
20260507164106 10 256 0.0 1.6 0.00 0.00 0.00 51 1020.7
20260507163604 10 220 0.0 0.0 0.00 0.00 0.00 46 1020.5
20260507163102 10 211 0.0 0.0 0.00 0.00 0.00 50 1020.5
20260507162601 10 223 1.6 1.6 0.00 0.00 0.00 44 1020.5
20260507162059 9 222 1.6 1.6 0.00 0.00 0.00 48 1020.7
20260507161555 10 211 4.8 6.4 0.00 0.00 0.00 43 1020.7
20260507161052 10 228 4.8 6.4 0.00 0.00 0.00 44 1020.8
20260507160548 9 209 1.6 1.6 0.00 0.00 0.00 48 1020.5
20260507160044 9 215 1.6 1.6 0.00 0.00 0.00 47 1020.8
20260507155539 8 224 4.8 6.4 0.00 0.00 0.00 46 1020.8
20260507155037 8 215 1.6 4.8 0.00 0.00 0.00 47 1020.7
20260507154534 8 223 4.8 4.8 0.00 0.00 0.00 46 1020.5
20260507154031 8 230 1.6 4.8 0.00 0.00 0.00 49 1020.8
20260507153528 7 186 1.6 4.8 0.00 0.00 0.00 50 1021.0
20260507153024 7 212 1.6 1.6 0.00 0.00 0.00 50 1020.8
20260507152520 7 215 0.0 0.0 0.00 0.00 0.00 53 1020.9
20260507152016 7 219 3.2 4.8 0.00 0.00 0.00 50 1020.8
20260507151513 7 210 4.8 8.0 0.00 0.00 0.00 51 1020.7
20260507151010 6 209 4.8 6.4 0.00 0.00 0.00 50 1021.0
20260507150506 6 195 1.6 1.6 0.00 0.00 0.00 52 1020.8
20260507150003 6 212 3.2 4.8 0.00 0.00 0.00 52 1020.7
20260507145458 6 189 3.2 6.4 0.00 0.00 0.00 52 1020.8
20260507144956 6 216 3.2 4.8 0.00 0.00 0.00 51 1020.5
20260507144452 6 212 3.2 4.8 0.00 0.00 0.00 53 1020.7
20260507143949 5 215 3.2 4.8 0.00 0.00 0.00 55 1020.8
20260507143447 5 215 0.0 1.6 0.00 0.00 0.00 57 1020.9
20260507142943 5 158 0.0 0.0 0.00 0.00 0.00 57 1020.5
20260507142439 5 214 1.6 1.6 0.00 0.00 0.00 62 1020.8
20260507141937 4 216 0.0 0.0 0.00 0.00 0.00 63 1020.7
20260507141432 4 242 0.0 0.0 0.00 0.00 0.00 61 1020.7
20260507140929 4 200 3.2 6.4 0.00 0.00 0.00 54 1020.7
20260507140425 4 194 1.6 1.6 0.00 0.00 0.00 55 1020.5
20260507135924 4 169 3.2 4.8 0.00 0.00 0.00 55 1020.7
20260507135420 4 180 1.6 4.8 0.00 0.00 0.00 54 1020.5
20260507134918 3 192 3.2 4.8 0.00 0.00 0.00 54 1020.7
20260507134414 3 210 1.6 4.8 0.00 0.00 0.00 54 1020.5
20260507133910 3 216 0.0 1.6 0.00 0.00 0.00 54 1020.4
20260507133406 3 210 1.6 1.6 0.00 0.00 0.00 54 1020.4
20260507132905 3 210 1.6 1.6 0.00 0.00 0.00 53 1020.3
20260507132401 3 172 1.6 1.6 0.00 0.00 0.00 53 1020.2
20260507131858 2 172 0.0 0.0 0.00 0.00 0.00 53 1020.3
20260507131355 2 172 0.0 0.0 0.00 0.00 0.00 57 1020.4
20260507130852 1 172 0.0 0.0 0.00 0.00 0.00 59 1020.3
20260507130348 1 172 0.0 0.0 0.00 0.00 0.00 63 1020.2
20260507125847 2 172 0.0 0.0 0.00 0.00 0.00 60 1020.3
20260507125344 2 172 0.0 0.0 0.00 0.00 0.00 58 1020.3
20260507124842 1 172 0.0 0.0 0.00 0.00 0.00 57 1020.2
20260507124338 1 172 0.0 0.0 0.00 0.00 0.00 59 1020.2
20260507123837 1 172 0.0 0.0 0.00 0.00 0.00 60 1020.3
20260507123333 0 172 0.0 0.0 0.00 0.00 0.00 65 1020.0
20260507122829 0 172 0.0 0.0 0.00 0.00 0.00 66 1020.2
20260507122325 0 172 0.0 0.0 0.00 0.00 0.00 61 1019.8
20260507121822 0 171 0.0 0.0 0.00 0.00 0.00 66 1020.0
20260507121317 0 172 0.0 0.0 0.00 0.00 0.00 62 1019.9
20260507120814 0 171 0.0 0.0 0.00 0.00 0.00 65 1020.2
20260507120310 0 171 0.0 0.0 0.00 0.00 0.00 67 1020.0
20260507115806 0 171 0.0 0.0 0.00 0.00 0.00 68 1020.2
20260507115306 0 171 0.0 0.0 0.00 0.00 0.00 68 1019.8
20260507114758 0 171 0.0 0.0 0.00 0.00 0.00 66 1020.2
20260507114256 1 171 0.0 0.0 0.00 0.00 0.00 58 1020.0
20260507113753 1 171 0.0 0.0 0.00 0.00 0.00 59 1020.3
20260507113249 0 171 0.0 0.0 0.00 0.00 0.00 62 1020.2
20260507112747 0 171 0.0 0.0 0.00 0.00 0.00 66 1019.9
20260507112244 0 171 0.0 0.0 0.00 0.00 0.00 63 1019.9
20260507111742 0 171 0.0 0.0 0.00 0.00 0.00 64 1020.3
20260507111238 0 171 0.0 0.0 0.00 0.00 0.00 65 1020.3
20260507110734 -1 171 0.0 0.0 0.00 0.00 0.00 72 1020.2
20260507110231 -2 171 0.0 0.0 0.00 0.00 0.00 77 1019.9
20260507105728 -2 171 0.0 0.0 0.00 0.00 0.00 77 1020.2
20260507105224 -2 171 0.0 0.0 0.00 0.00 0.00 77 1020.2
20260507104722 -2 171 0.0 0.0 0.00 0.00 0.00 77 1020.0
20260507104218 -1 171 0.0 0.0 0.00 0.00 0.00 75 1019.9
20260507103714 -1 171 0.0 0.0 0.00 0.00 0.00 73 1019.9
20260507103210 -1 171 0.0 0.0 0.00 0.00 0.00 74 1020.2
20260507102707 0 171 0.0 0.0 0.00 0.00 0.00 69 1020.2
20260507102204 0 171 0.0 0.0 0.00 0.00 0.00 67 1019.9
20260507101700 -1 171 0.0 0.0 0.00 0.00 0.00 72 1020.0
20260507101155 -1 171 0.0 0.0 0.00 0.00 0.00 75 1020.2
20260507100653 -2 171 0.0 0.0 0.00 0.00 0.00 76 1019.9
20260507100151 -2 171 0.0 0.0 0.00 0.00 0.00 77 1020.3
20260507095648 -2 171 0.0 0.0 0.00 0.00 0.00 79 1020.3
20260507095145 -2 171 0.0 0.0 0.00 0.00 0.00 78 1020.2
20260507094641 -2 171 0.0 0.0 0.00 0.00 0.00 78 1020.4
20260507094138 -2 171 0.0 0.0 0.00 0.00 0.00 78 1020.0
20260507093635 -2 171 0.0 0.0 0.00 0.00 0.00 77 1020.0
20260507093134 -2 171 0.0 0.0 0.00 0.00 0.00 76 1020.2
20260507092631 -1 171 0.0 0.0 0.00 0.00 0.00 75 1020.2
20260507092127 -1 171 0.0 0.0 0.00 0.00 0.00 74 1020.4
20260507091624 -2 171 0.0 0.0 0.00 0.00 0.00 77 1020.3
20260507091119 -2 171 0.0 0.0 0.00 0.00 0.00 77 1020.0
20260507090615 -2 171 0.0 0.0 0.00 0.00 0.00 76 1020.4
20260507090113 -2 171 0.0 0.0 0.00 0.00 0.00 79 1020.5
20260507085610 -2 171 0.0 0.0 0.00 0.00 0.00 79 1020.2
20260507085106 -2 171 0.0 0.0 0.00 0.00 0.00 80 1020.7
20260507084603 -2 171 0.0 0.0 0.00 0.00 0.00 80 1020.4
20260507084100 -2 171 0.0 0.0 0.00 0.00 0.00 79 1020.5
20260507083556 -2 171 0.0 0.0 0.00 0.00 0.00 78 1020.4
20260507083053 -1 171 0.0 0.0 0.00 0.00 0.00 76 1020.2
20260507082549 -1 171 0.0 0.0 0.00 0.00 0.00 74 1020.5
20260507082046 -1 171 0.0 0.0 0.00 0.00 0.00 71 1020.8
20260507081542 -1 171 0.0 0.0 0.00 0.00 0.00 71 1020.4
20260507081040 -1 171 0.0 0.0 0.00 0.00 0.00 73 1020.7
20260507080535 -1 171 0.0 0.0 0.00 0.00 0.00 79 1020.8
20260507080032 -2 171 0.0 0.0 0.00 0.00 0.00 85 1020.4
20260507075527 -2 171 0.0 0.0 0.00 0.00 0.00 87 1020.4
20260507075024 -2 171 0.0 0.0 0.00 0.00 0.00 88 1020.5
20260507074520 -3 171 0.0 0.0 0.00 0.00 0.00 89 1020.7
20260507074019 -3 171 0.0 0.0 0.00 0.00 0.00 90 1020.7
20260507073515 -3 171 0.0 0.0 0.00 0.00 0.00 90 1020.9
20260507073012 -3 171 0.0 0.0 0.00 0.00 0.00 91 1020.5
20260507072509 -3 171 0.0 0.0 0.00 0.00 0.00 91 1020.8
20260507072006 -3 171 0.0 0.0 0.00 0.00 0.00 92 1020.7
20260507071504 -3 171 0.0 0.0 0.00 0.00 0.00 92 1020.8
20260507071000 -3 171 0.0 0.0 0.00 0.00 0.00 92 1020.9
20260507070457 -3 171 0.0 0.0 0.00 0.00 0.00 92 1020.8
20260507065954 -3 171 0.0 0.0 0.00 0.00 0.00 92 1020.9
20260507065451 -3 171 0.0 0.0 0.00 0.00 0.00 92 1020.9
20260507064948 -3 171 0.0 0.0 0.00 0.00 0.00 92 1020.7
20260507064446 -3 171 0.0 0.0 0.00 0.00 0.00 92 1020.9
20260507063943 -3 171 0.0 0.0 0.00 0.00 0.00 92 1020.9
20260507063440 -3 171 0.0 0.0 0.00 0.00 0.00 92 1021.2
20260507062937 -2 171 0.0 0.0 0.00 0.00 0.00 92 1020.9
20260507062434 -2 171 0.0 0.0 0.00 0.00 0.00 92 1021.0
20260507061932 -2 171 0.0 0.0 0.00 0.00 0.00 92 1020.9
20260507061430 -2 171 0.0 0.0 0.00 0.00 0.00 92 1020.9
20260507060928 -2 171 0.0 0.0 0.00 0.00 0.00 92 1020.9
20260507060424 -2 171 0.0 0.0 0.00 0.00 0.00 92 1020.8
20260507055922 -2 171 0.0 0.0 0.00 0.00 0.00 92 1021.0
20260507055417 -2 171 0.0 0.0 0.00 0.00 0.00 92 1020.5
20260507054914 -2 171 0.0 0.0 0.00 0.00 0.00 92 1020.8
20260507054409 -2 171 0.0 0.0 0.00 0.00 0.00 92 1020.5
20260507053907 -2 171 0.0 0.0 0.00 0.00 0.00 92 1020.5
20260507053404 -2 171 0.0 0.0 0.00 0.00 0.00 92 1020.9
20260507052903 -2 171 0.0 0.0 0.00 0.00 0.00 92 1020.5
20260507052400 -2 171 0.0 0.0 0.00 0.00 0.00 91 1020.4
20260507051857 -2 171 0.0 0.0 0.00 0.00 0.00 91 1020.8
20260507051355 -2 171 0.0 0.0 0.00 0.00 0.00 91 1020.5
20260507050851 -2 171 0.0 0.0 0.00 0.00 0.00 91 1020.4
20260507050348 -2 171 0.0 0.0 0.00 0.00 0.00 91 1020.3
20260507045845 -2 171 0.0 0.0 0.00 0.00 0.00 91 1020.4
20260507045341 -2 171 0.0 0.0 0.00 0.00 0.00 91 1020.3
20260507044838 -2 171 0.0 0.0 0.00 0.00 0.00 91 1020.5
20260507044335 -2 171 0.0 0.0 0.00 0.00 0.00 91 1020.4
20260507043831 -2 171 0.0 0.0 0.00 0.00 0.00 91 1020.4
20260507043327 -2 171 0.0 0.0 0.00 0.00 0.00 91 1020.3
20260507042824 -2 171 0.0 0.0 0.00 0.00 0.00 90 1020.5
20260507042319 -2 171 0.0 0.0 0.00 0.00 0.00 90 1020.5
20260507041817 -2 171 0.0 0.0 0.00 0.00 0.00 90 1020.4
20260507041313 -2 171 0.0 0.0 0.00 0.00 0.00 90 1020.3
20260507040811 -2 171 0.0 0.0 0.00 0.00 0.00 90 1020.4
20260507040306 -2 171 0.0 0.0 0.00 0.00 0.00 90 1020.3